Main page
METAR-TAF:

METAR-TAF

Airports :

Boulder City Municipal Airport

Boulder City, Nevada, United States

latitude: 35-56-50N, longitude: 114-51-37W, elevation: 2201 ft

Current weather observation

The report was made 27 minutes ago, at 00:35 UTC
Wind 23 mph from the West/Southwest with gusts up to 32 mph
Temperature 63°F
Humidity 22%
Pressure 29.72 in. Hg
Visibility: 10 miles
Clear sky

METAR: KBVU 040035Z AUTO 24020G28KT 10SM CLR 17/M05 A2972 RMK AO2

Time: 17:02 (01:02 UTC)


TAF: missing

Weather observations and forecasts of more than 4000 airports (METAR and TAF reports).

The available stations are represented by yellow and red dots on the map.

Hover mouse over dot to see the name of the station.

Then click to see weather observations and forecasts.

To change the map : click on the green buttons with a black cross to zoom in, on the green button with a dash to zoom out, or on the green arrows for adjacent maps.


METAR-TAF: